Location: Gouy
(50.0008°N, 3.2556°E)
Time: 12:02:05
(UTC+00:00)

Cosmos 468 Rocket - Pass Details

Date: 23 May 2024
Orbit: 741 x 777 km, 74.0° (Epoch: 14 June)

Event Time Altitude Azimuth Distance (km) Brightness Sun altitude
Rises 00:39:20 0° 334° (NNW) 3,271 8.1 -18.3°
Reaches altitude 10° 00:41:44 10° 333° (NNW) 2,337 7.2 -18.2°
Maximum altitude 00:47:02 76° 249° (WSW) 801 3.9 -18.0°
Enters shadow 00:49:50 28° 169° (SSE) 1,408 4.9 -17.9°
